Regional Weather Roundup
Issued by NWS

Home | Current Version | Previous Version | Graphics & Text | Print | Product List | Glossary On
Versions: 1 2 3 4 5 6 7 8 9 10 11 12 13 14 15 16 17 18 19 20 21 22 23 24 25 26 27 28 29 30 31 32 33 34 35 36 37 38 39 40 41 42 43 44 45 46 47 48 49 50
000
ASUS43 KBIS 231520
RWRND

NORTH DAKOTA REGIONAL WEATHER ROUNDUP
NATIONAL WEATHER SERVICE BISMARCK ND
1000 AM CDT WED APR 23 2014

NOTE: "FAIR" INDICATES FEW OR NO CLOUDS BELOW 12,000 FEET WITH NO
SIGNIFICANT WEATHER AND/OR OBSTRUCTIONS TO VISIBILITY.


NDZ001>003-009>011-017-231600-
NORTHWEST NORTH DAKOTA

CITY           SKY/WX    TMP DP  RH WIND       PRES   REMARKS
WILLISTON      PTSUNNY   55  38  52 SE17G32   29.43F
MINOT          LGT RAIN  47  42  83 SE24G38   29.60S
MINOT AFB      LGT RAIN  46  46  99 SE28G36   29.60F
$$

NDZ018>021-031>035-040>046-231600-
SOUTHWEST NORTH DAKOTA

CITY           SKY/WX    TMP DP  RH WIND       PRES   REMARKS
BISMARCK       PTSUNNY   53  38  56 SE18G29   29.59S
DICKINSON      CLOUDY    54  35  48 SE23G35   29.42S
GARRISON         N/A     48  41  76 SE28G38   29.54F
HETTINGER ARPT CLOUDY    52  34  50 SE16G33   29.45F
$$

NDZ004>008-012>016-024-026-027-054-231600-
NORTHEAST NORTH DAKOTA

CITY           SKY/WX    TMP DP  RH WIND       PRES   REMARKS
GRAND FORKS    CLOUDY    49  31  49 SE24G31   29.87F
GRND FRKS AFB  CLOUDY    48  32  53 SE22G30   29.87F
DEVILS LAKE    CLOUDY    39  36  87 SE21G28   29.76F
$$

NDZ022-023-025-028>030-036>039-047>053-231600-
SOUTHEAST NORTH DAKOTA

CITY           SKY/WX    TMP DP  RH WIND       PRES   REMARKS
FARGO          LGT RAIN  44  39  82 SE25G35   29.87F
JAMESTOWN      CLOUDY    46  42  86 SE31G44   29.68F
$$




USA.gov is the U.S. government's official web portal to all federal, state and local government web resources and services.